TimeCST,TemperatureF,Dew PointF,Humidity,Sea Level PressureIn,VisibilityMPH,Wind Direction,Wind SpeedMPH,Gust SpeedMPH,PrecipitationIn,Events,Conditions,WindDirDegrees,DateUTC
12:53 AM,57.9,37.9,47,29.83,10.0,SSW,8.1,-,N/A,,Clear,210,2014-01-13 06:53:00
1:53 AM,59.0,43.0,55,29.81,10.0,SW,8.1,18.4,N/A,,Clear,220,2014-01-13 07:53:00
2:53 AM,57.0,45.0,64,29.81,10.0,WSW,5.8,-,N/A,,Clear,250,2014-01-13 08:53:00
3:53 AM,57.0,45.0,64,29.82,10.0,Calm,Calm,-,N/A,,Overcast,0,2014-01-13 09:53:00
4:53 AM,57.0,45.0,64,29.79,10.0,South,5.8,-,0.00,,Overcast,190,2014-01-13 10:53:00
5:18 AM,57.2,46.4,67,29.80,10.0,South,6.9,-,N/A,,Overcast,190,2014-01-13 11:18:00
5:53 AM,57.0,46.9,69,29.79,10.0,Calm,Calm,-,N/A,,Overcast,0,2014-01-13 11:53:00
6:53 AM,55.9,48.9,77,29.79,10.0,South,3.5,-,0.00,,Overcast,170,2014-01-13 12:53:00
7:53 AM,55.0,51.1,86,29.80,10.0,Calm,Calm,-,0.00,Rain,Light Rain,0,2014-01-13 13:53:00
8:53 AM,54.0,50.0,86,29.83,9.0,West,3.5,-,0.00,Rain,Light Rain,280,2014-01-13 14:53:00
9:53 AM,55.0,50.0,83,29.86,10.0,West,4.6,-,0.00,,Overcast,260,2014-01-13 15:53:00
10:53 AM,57.9,37.0,46,29.87,10.0,NW,12.7,19.6,N/A,,Mostly Cloudy,310,2014-01-13 16:53:00
11:53 AM,62.1,36.0,38,29.84,10.0,NW,10.4,20.7,N/A,,Clear,320,2014-01-13 17:53:00
12:53 PM,63.0,32.0,31,29.83,10.0,WNW,11.5,18.4,N/A,,Clear,300,2014-01-13 18:53:00
1:53 PM,63.0,32.0,31,29.83,10.0,NNW,6.9,18.4,N/A,,Clear,330,2014-01-13 19:53:00
2:53 PM,63.0,30.9,30,29.85,10.0,NW,11.5,20.7,N/A,,Clear,310,2014-01-13 20:53:00
3:53 PM,62.1,32.0,32,29.88,10.0,NW,9.2,-,N/A,,Clear,310,2014-01-13 21:53:00
4:53 PM,57.9,32.0,37,29.90,10.0,NW,8.1,-,N/A,,Clear,320,2014-01-13 22:53:00
5:53 PM,55.0,32.0,42,29.92,10.0,WNW,4.6,-,N/A,,Clear,300,2014-01-13 23:53:00
6:53 PM,53.1,33.1,47,29.95,10.0,WNW,4.6,-,N/A,,Clear,290,2014-01-14 00:53:00
7:53 PM,51.1,33.1,50,29.98,10.0,WNW,3.5,-,N/A,,Clear,300,2014-01-14 01:53:00
8:53 PM,46.9,33.1,59,29.99,10.0,Calm,Calm,-,N/A,,Clear,0,2014-01-14 02:53:00
9:53 PM,44.1,33.1,65,30.01,10.0,Calm,Calm,-,N/A,,Clear,0,2014-01-14 03:53:00
10:53 PM,39.9,32.0,73,30.02,10.0,Calm,Calm,-,N/A,,Clear,0,2014-01-14 04:53:00
11:53 PM,36.0,30.0,79,30.02,10.0,Calm,Calm,-,N/A,,Clear,0,2014-01-14 05:53:00